Regional Weather Roundup
Issued by NWS

Home | Current Version | Previous Version | Graphics & Text | Print | Product List | Glossary On
Versions: 1 2 3 4 5 6 7 8 9 10 11 12 13 14 15 16 17 18 19 20 21 22 23 24 25 26 27 28 29 30 31 32 33 34 35 36 37 38 39 40 41 42 43 44 45 46 47 48 49 50
000
ASUS43 KOAX 061010
RWRNE

WEATHER ROUNDUP FOR NEBRASKA
NATIONAL WEATHER SERVICE OMAHA NE
500 AM CDT WED MAY 06 2015

NOTES: SATELLITE DATA IS BEING USED TO AUGMENT CLOUD COVER ABOVE
       12000 FEET.
       "FAIR" INDICATES FEW OR NO CLOUDS BELOW 12,000 FEET WITH NO
       SIGNIFICANT WEATHER AND/OR OBSTRUCTIONS TO VISIBILITY.

  * THESE STATIONS DO NOT REPORT WEATHER SUCH AS RAIN...SNOW OR FOG.

NEZ001>004-019>022-054>056-061100-
NEBRASKA PANHANDLE

CITY           SKY/WX    TMP DP  RH WIND       PRES   REMARKS
SCOTTSBLUFF    LGT RAIN  53  53 100 E8        29.69F FOG
ALLIANCE       LGT RAIN  53  52  96 SE8       29.70F FOG
CHADRON        LGT RAIN  53  51  93 NE7       29.71F FOG
KIMBALL        CLOUDY    51  51 100 E6        29.66F FOG
SIDNEY         CLOUDY    52  51  97 SE12      29.68F
$$

NEZ057>060-069>072-079>082-061100-
SOUTHWEST NEBRASKA

CITY           SKY/WX    TMP DP  RH WIND       PRES   REMARKS
NORTH PLATTE   CLOUDY    59  56  89 SE12G18   29.74F
IMPERIAL       CLOUDY    53  50  89 S16       29.71S
LEXINGTON      CLOUDY    60  58  94 SE13G21   29.76F
MCCOOK         RAIN      60  58  92 S13       29.73F FOG
OGALLALA       CLOUDY    54  53  94 SE10G17   29.71F
$$

NEZ005>010-023>029-035>040-094-061100-
NORTH CENTRAL NEBRASKA

CITY           SKY/WX    TMP DP  RH WIND       PRES   REMARKS
VALENTINE      CLOUDY    57  56  96 SE14      29.76F
AINSWORTH      CLOUDY    58  57  97 SE13      29.78S
BROKEN BOW     LGT RAIN  60  58  92 SE20G25   29.77F FOG
O`NEILL        CLOUDY    61  59  93 SE12      29.83S
ORD            CLOUDY    60  57  89 SE13      29.79F
THEDFORD       CLOUDY    59  57  96 SE12      29.76F
$$

NEZ041-046>049-061>064-073>077-083>087-061100-
SOUTH CENTRAL NEBRASKA

CITY           SKY/WX    TMP DP  RH WIND       PRES   REMARKS
GRAND ISLAND   MOCLDY    61  58  90 SE14      29.81F
AURORA         CLOUDY    62  62 100 SE10      29.82F
HASTINGS       CLOUDY    61  58  90 SE10      29.80F
HEBRON         LGT RAIN  62  58  87 SE13      29.81F
HOLDREGE       CLOUDY    60  58  94 SE18      29.77F
KEARNEY *      CLOUDY    61  55  82 SE17      29.78F
YORK           CLOUDY    63  59  88 SE14      29.84S
$$

NEZ011>018-030>034-042>045-061100-
NORTHEAST NEBRASKA

CITY           SKY/WX    TMP DP  RH WIND       PRES   REMARKS
NORFOLK        CLOUDY    63  60  90 SE9       29.85F
ALBION         CLOUDY    61  59  94 SE12      29.83F
COLUMBUS *     MOCLDY    63  55  77 SE9       29.86F
FREMONT        CLOUDY    65  60  83 SE8       29.88F
TEKAMAH        CLOUDY    64  61  90 SE13      29.89F
WAYNE          MOCLDY    63  60  88 SE12      29.88F
$$

NEZ050>053-065>068-078-088>093-061100-
SOUTHEAST NEBRASKA

CITY           SKY/WX    TMP DP  RH WIND       PRES   REMARKS
LINCOLN        LGT RAIN  64  60  87 SE9       29.87F
OMAHA EPPLEY   CLOUDY    63  60  90 SE9       29.90F
BEATRICE       LGT RAIN  62  61  94 SE13      29.85F
FALLS CITY     LGT RAIN  64  60  87 SE9       29.89F
NEBRASKA CITY  RAIN      63  62  97 SE9       29.90S
PLATTSMOUTH    CLOUDY    62  59  91 E9        29.90S
$$

NEZ044-045-051>053-067-061100-
OMAHA AREA

CITY           SKY/WX    TMP DP  RH WIND       PRES   REMARKS
OMAHA EPPLEY   CLOUDY    63  60  90 SE9       29.90F
FREMONT        CLOUDY    65  60  83 SE8       29.88F
MILLARD        CLOUDY    64  60  88 SE9       29.89S
PLATTSMOUTH    CLOUDY    62  59  91 E9        29.90S
$$


USA.gov is the U.S. government's official web portal to all federal, state and local government web resources and services.